Location: D E Bondurant Grain Company Grain Elevator Number 2
(38.4475°N, 100.0546°W)
Time: 06:53:57
(UTC+00:00)

Daily predictions for brighter satellites

Satellite Brightness Start Highest point End
(mag) Time Altitude Azimuth Time Altitude Azimuth Time Altitude Azimuth
Cosmos 841 Rocket 3.9 12:01:59 10° S 12:07:02 64° ESE 12:12:08 10° NNE
Cosmos 1898 Rocket 3.5 12:04:49 17° NNW 12:08:54 81° ENE 12:14:04 10° SSE
FALCON 9 R/B 3.3 12:08:10 19° SW 12:09:33 21° SSW 12:12:15 10° SSE
Cosmos 2237 Rocket 2.4 12:05:15 10° SSW 12:10:51 71° ESE 12:16:32 10° NNE
Cosmos 2333 Rocket 3.0 12:13:27 30° NW 12:13:27 30° NW 12:17:54 10° N
deb Chang Zheng 4 3.4 12:09:14 10° N 12:13:26 60° WNW 12:17:34 10° SSW
GPS 2-04 Rocket1 3.6 12:13:17 34° SW 12:14:03 37° SSW 12:17:54 10° SE
ATLAS CENTAUR R/B 4.1 12:11:58 10° SSE 12:14:31 18° ESE 12:17:02 10° ENE
Cosmos 1570 Rocket 4.4 12:11:21 10° S 12:16:29 64° ESE 12:21:40 10° NNE
Cosmos 2219 Rocket 2.8 12:17:16 32° WNW 12:17:17 32° WNW 12:22:15 10° N
Cosmos 2034 Rocket 4.1 12:11:59 10° S 12:18:21 86° E 12:24:45 10° N
YAOGAN 6 3.0 12:19:42 10° NNE 12:23:23 67° E 12:27:03 10° S
Cosmos 1953 2.1 12:19:51 10° S 12:23:50 81° W 12:27:50 10° N
FALCON 9 DEB 3.0 12:25:36 47° W 12:26:19 62° NW 12:29:42 10° NE
Nadezhda 4 Rocket 3.9 12:25:30 10° N 12:31:39 89° E 12:37:46 10° S
PSLV R/B 3.8 12:28:09 10° S 12:32:13 74° WSW 12:36:21 10° NNW
COSMOS 2428 3.5 12:30:54 24° W 12:32:42 29° WNW 12:37:38 10° N
Cosmos 1461 3.6 12:30:57 25° WSW 12:33:05 38° NW 12:37:34 10° NNE
Cosmos 1892 Rocket 4.0 12:31:19 23° NW 12:33:22 36° W 12:37:23 10° SSW
Cosmos 2208 Rocket 4.2 12:29:57 10° SSW 12:35:23 79° ESE 12:40:50 10° NNE
GEOS 3 Rocket 3.7 12:30:18 10° SSE 12:35:37 70° WSW 12:40:17 14° NW
ERS-2 2.5 12:32:17 10° S 12:35:46 42° W 12:37:40 23° NW
Cosmos 1908 3.1 12:32:19 10° S 12:36:06 90° W 12:39:55 10° N
Meteor PRIRODA 4.2 12:35:14 10° N 12:38:32 33° WNW 12:41:48 10° SW
Cosmos 1814 Rocket 3.9 12:37:46 10° SSW 12:42:54 81° WNW 12:48:03 10° NNE
Cosmos 1980 3.7 12:37:58 10° SW 12:43:32 57° WNW 12:49:07 10° NNE
Cosmos 1937 Rocket 3.5 12:39:28 10° NNW 12:44:43 66° WSW 12:49:53 10° S
COSMO-SKYMED 1 3.5 12:41:06 10° SSW 12:44:50 28° W 12:47:20 17° NW
Cosmos 921 Rocket 4.0 12:43:59 21° W 12:44:55 23° WNW 12:48:19 10° NNW
Cosmos 372 Rocket 4.4 12:43:49 10° NNW 12:49:04 68° ENE 12:54:16 10° SSE
Envisat 2.9 12:44:17 10° N 12:49:20 65° WNW 12:54:20 10° SSW
NOAA 6 4.0 12:46:03 10° NNE 12:51:15 87° WNW 12:56:27 10° SSW
SJ 16-02 3.2 12:52:18 13° WSW 12:52:18 13° WSW 12:53:41 10° SW
Meteor 2-13 Rocket 4.5 12:45:38 10° NNW 12:51:43 62° W 12:57:44 10° S
USA 306 4.1 12:48:05 10° SSW 12:52:08 45° SE 12:56:11 10° ENE
CZ-4B DEB 4.2 12:55:09 10° N 13:00:43 74° WNW 13:06:15 10° SSW
CZ-4B R/B 4.2 13:00:22 10° NNW 13:02:38 16° WNW 13:04:57 10° WSW
CZ-2C R/B 2.3 13:00:02 10° WSW 13:03:53 40° S 13:07:29 10° E
Cosmos 1544 Rocket 4.5 13:00:38 10° SW 13:04:14 26° WNW 13:07:51 10° NNW
USA 276 4.3 13:05:16 11° WSW 13:06:39 13° SW 13:08:14 10° SSW
Cosmos 2026 Rocket 4.2 13:02:32 10° N 13:08:55 82° E 13:15:18 10° S
Lacrosse 4 Rocket 1.4 13:07:06 10° SSW 13:11:16 80° WNW 13:15:35 10° NNE
Cosmos 1703 3.5 13:07:52 10° NNW 13:11:37 47° W 13:15:22 10° SSW
Cosmos 1340 2.9 13:11:23 10° NNW 13:15:01 47° W 13:18:37 10° S
Cosmos 1346 Rocket 3.4 13:12:26 10° N 13:16:22 60° E 13:20:18 10° SSE
Cosmos 1606 Rocket 4.0 13:13:07 10° S 13:17:23 67° E 13:21:41 10° NNE
Cosmos 540 Rocket 4.4 13:14:13 10° WSW 13:18:27 26° WNW 13:22:42 10° N
Cosmos 1689 Rocket 4.0 13:17:32 10° SW 13:19:05 13° W 13:20:37 10° WNW
Lacrosse 5 rocket 1.8 13:16:32 10° NNW 13:20:16 49° NE 13:23:49 10° ESE
Cosmos 1939 Rocket 3.4 13:18:24 10° NNE 13:22:18 62° E 13:26:08 10° S
BREEZE M DEB (TANK) 2.0 13:21:02 10° WSW 13:23:09 44° NNW 13:27:00 10° NE
Cosmos 44 Rocket 3.9 13:21:00 10° NW 13:25:57 45° WSW 13:30:52 10° S
Cosmos 1626 Rocket 4.5 13:22:30 10° NNW 13:26:22 29° W 13:30:13 10° SSW
Cosmos 2228 2.9 13:25:47 10° SSW 13:30:02 75° W 13:34:17 10° N
DMSP B5D2-2 4.1 13:27:15 10° SSE 13:32:29 83° WSW 13:37:46 10° NNW
